Location: Albuquerque Trailhead
(34.7934°N, 106.3736°W)
Time: 00:46:08
(UTC+00:00)

ERS-1 Rocket - Pass Details

Date: 20 June 2021
Orbit: 752 x 758 km, 98.4° (Epoch: 01 August)

Event Time Altitude Azimuth Distance (km) Brightness Sun altitude
Exits shadow 05:24:13 43° 245° (WSW) 1,058 3.6 -26.9°
Maximum altitude 05:24:40 44° 261° (W) 1,040 3.7 -26.9°
Drops below altitude 10° 05:29:29 10° 333° (NNW) 2,293 6.5 -27.3°
Sets 05:31:53 0° 340° (NNW) 3,222 7.5 -27.5°
